[[{"header":{"parameterUnit":"m.s-1","parameterCategory":1,"la1":30.2991,"la2":30.254,"lo1":-89.0895,"lo2":-89.0444,"dy":0.0017,"dx":0.0017,"nx":28,"ny":28,"refTime":"2023-10-12T03:00:00:Z","depth":0,"parameterNumber":2,"parameterNumberName":"U-component_of_WINDS"},"data":[0,0,0,0,0,0,0,0,0,0,0,0,0,0,0,0,0,0,0,0,0,0,0,0,0,0,0,0,0,0,0,0,0,0,0,0,0,0,0,0,0,0,0,0,0,0,0,0,0,0,0,0,0,0,0,0,0,0,-1.3229,-1.323,0,-1.3292,-1.3292,-1.3293,-1.333,-1.333,-1.333,-1.333,-1.3391,-1.3392,-1.3394,0,0,0,0,0,0,0,0,0,0,0,0,0,-1.3139,-1.314,-1.3229,-1.323,-1.3231,-1.3292,-1.3292,-1.3293,-1.333,-1.333,-1.333,-1.333,-1.339,-1.3392,-1.3394,0,0,0,0,0,0,0,0,0,0,0,0,0,-1.3187,-1.3141,-1.3229,-1.3256,-1.3259,-1.3291,-1.3292,-1.3293,-1.333,-1.333,-1.333,-1.333,-1.339,-1.3392,-1.3394,-1.3403,0,0,-1.3401,-1.3402,0,0,0,0,0,0,0,0,-1.3184,-1.3191,-1.3252,-1.3255,-1.3258,-1.3303,-1.3283,-1.333,-1.333,-1.3303,-1.333,-1.333,-1.3361,-1.3366,-1.3377,-1.3406,-1.3408,-1.3401,-1.3402,-1.3403,-1.3404,0,0,0,0,0,0,0,-1.3181,-1.3188,-1.3254,-1.3252,-1.3256,-1.3265,-1.3272,-1.3292,-1.333,-1.3305,-1.3308,-1.3315,-1.3363,-1.3375,-1.3379,-1.3409,-1.3401,-1.3403,-1.3404,-1.3405,-1.3448,-1.3448,0,0,0,0,0,0,-1.3174,-1.3185,-1.3252,-1.3256,-1.3221,-1.3266,-1.3274,-1.3288,-1.333,-1.3336,-1.3315,-1.3317,-1.3371,-1.3376,-1.3381,-1.3394,-1.3403,-1.3405,-1.3407,-1.3448,-1.3448,-1.3448,0,0,0,0,0,0,-1.3172,-1.3179,-1.3249,-1.3221,-1.3231,-1.3267,-1.3283,-1.3289,-1.3301,-1.3337,-1.3344,-1.332,-1.3371,-1.3378,-1.3397,-1.3397,-1.3406,-1.3408,-1.3449,-1.3448,-1.3448,-1.342,0,0,0,0,0,0,-1.3169,-1.3178,-1.3183,-1.3221,-1.3232,-1.3266,-1.3283,-1.3291,-1.3305,-1.3308,-1.3344,-1.335,-1.3372,-1.3394,-1.34,-1.34,-1.341,-1.3449,-1.3448,-1.3448,-1.3421,-1.3419,-1.3417,0,0,0,0,0,-1.3166,-1.3172,-1.3183,-1.3191,-1.3239,-1.3266,-1.3272,-1.3298,-1.3305,-1.3309,-1.3332,-1.3349,-1.3396,-1.3396,-1.3402,-1.3403,-1.3449,-1.3448,-1.3448,-1.3422,-1.3419,-1.3417,0,0,0,0,0,0,-1.3132,-1.3177,-1.319,-1.3209,-1.3233,-1.3272,-1.3278,-1.3294,-1.3316,-1.3318,-1.3349,-1.3356,-1.3373,-1.339,-1.3389,-1.3414,-1.3424,-1.3425,-1.3402,-1.34,-1.3397,-1.3393,-1.3412,0,0,0,0,0,-1.3127,-1.3146,-1.3184,-1.3197,-1.3209,-1.3241,-1.3254,-1.3272,-1.3298,-1.3308,-1.3332,-1.3356,-1.3376,-1.3389,-1.3409,-1.3424,-1.3432,-1.3427,-1.3425,-1.3423,-1.3424,-1.3432,-1.3431,-1.3447,-1.3447,-1.3447,0,0,-1.3116,-1.3143,-1.3153,-1.3191,-1.3212,-1.323,-1.3249,-1.3268,-1.3281,-1.331,-1.3331,-1.3349,-1.3378,-1.3395,-1.3403,-1.3409,-1.3421,-1.3423,-1.3421,-1.3422,-1.3432,-1.343,-1.3429,-1.3446,-1.3446,-1.3446,0,0,-1.3106,-1.3128,-1.3142,-1.3162,-1.3194,-1.3216,-1.3219,-1.3255,-1.3269,-1.329,-1.3312,-1.3328,-1.3362,-1.3381,-1.3396,-1.3392,-1.3408,-1.3398,-1.3387,-1.3395,-1.3393,-1.3392,-1.3391,-1.339,-1.3398,-1.3398,-1.3398,0,-1.3088,-1.3118,-1.3146,-1.3164,-1.3179,-1.3208,-1.3221,-1.3239,-1.3275,-1.3285,-1.3292,-1.3335,-1.3356,-1.3378,-1.3377,-1.3388,-1.3392,-1.3394,-1.3391,-1.3391,-1.339,-1.3389,-1.3389,-1.3397,-1.3397,-1.3397,-1.3397,0,-1.3094,-1.3114,-1.3121,-1.3156,-1.3173,-1.3188,-1.3218,-1.3231,-1.3248,-1.3268,-1.3289,-1.3315,-1.3341,-1.3348,-1.3364,-1.3372,-1.3375,-1.3386,-1.3397,-1.3387,-1.3387,-1.3387,-1.3395,-1.3395,-1.3396,-1.3396,0,0,-1.3065,-1.3116,-1.3118,-1.3134,-1.3171,-1.3187,-1.3202,-1.3229,-1.324,-1.3263,-1.3277,-1.3305,-1.3316,-1.3332,-1.3351,-1.3358,-1.3353,-1.3368,-1.3369,-1.3364,-1.3363,-1.3355,-1.3354,-1.3364,-1.3364,-1.3364,-1.3361,0,-1.306,-1.3091,-1.3118,-1.3139,-1.3157,-1.3184,-1.3198,-1.3221,-1.3241,-1.3258,-1.3279,-1.3299,-1.3312,-1.3322,-1.333,-1.3352,-1.3353,-1.3353,-1.3376,-1.3377,-1.3369,-1.3354,-1.3345,-1.3341,-1.3361,-1.3361,-1.3361,0,-1.3059,-1.3083,-1.3106,-1.3141,-1.3149,-1.3162,-1.3188,-1.3205,-1.3232,-1.3245,-1.3263,-1.3283,-1.33,-1.3309,-1.3333,-1.3332,-1.3343,-1.3355,-1.3355,-1.3359,-1.3368,-1.3356,-1.334,-1.3339,-1.3361,-1.3361,-1.3361,0,-1.3035,-1.3073,-1.3092,-1.3105,-1.3146,-1.3154,-1.3171,-1.3198,-1.3212,-1.3235,-1.3245,-1.3269,-1.3282,-1.3299,-1.3324,-1.3329,-1.3345,-1.3356,-1.3356,-1.3356,-1.3359,-1.3358,-1.3344,-1.3366,-1.3366,-1.3366,-1.3366,0,-1.3027,-1.304,-1.3081,-1.3093,-1.3108,-1.3138,-1.3151,-1.3171,-1.3195,-1.321,-1.3234,-1.3248,-1.328,-1.3297,-1.3316,-1.3333,-1.3338,-1.3349,-1.3354,-1.3347,-1.3346,-1.3355,-1.3356,-1.3365,-1.3365,-1.3366,-1.3366,0,-1.3003,-1.3031,-1.3054,-1.3091,-1.3101,-1.311,-1.3142,-1.3153,-1.3174,-1.3193,-1.3199,-1.3231,-1.3252,-1.3279,-1.3308,-1.3322,-1.3336,-1.3344,-1.3327,-1.333,-1.3328,-1.3328,-1.3319,-1.3319,-1.3341,-1.3341,-1.334,0,-1.2996,-1.3007,-1.3046,-1.3058,-1.3075,-1.3094,-1.3109,-1.3139,-1.3153,-1.3184,-1.3192,-1.3215,-1.3236,-1.3268,-1.3293,-1.3316,-1.3324,-1.332,-1.3328,-1.332,-1.3324,-1.3323,-1.3324,-1.3318,-1.3317,-1.3317,-1.3317,0,-1.2981,-1.2995,-1.3016,-1.3042,-1.3059,-1.308,-1.3103,-1.3111,-1.3145,-1.3159,-1.3182,-1.3198,-1.3228,-1.3251,-1.3277,-1.3294,-1.331,-1.3314,-1.3315,-1.3308,-1.3298,-1.3303,-1.3321,-1.3314,-1.3314,-1.3314,-1.3315,-1.3315,-1.2966,-1.2977,-1.3006,-1.3028,-1.3048,-1.3069,-1.3082,-1.3104,-1.3124,-1.3152,-1.3167,-1.3189,-1.3215,-1.3252,-1.3268,-1.3285,-1.3291,-1.3293,-1.3293,-1.3293,-1.3291,-1.3295,-1.329,-1.329,-1.329,-1.329,-1.329,0,-1.2952,-1.2972,-1.2993,-1.3024,-1.3041,-1.3056,-1.3082,-1.3095,-1.3114,-1.3138,-1.3157,-1.3183,-1.3205,-1.3232,-1.3256,-1.3264,-1.3272,-1.3269,-1.3269,-1.3272,-1.3284,-1.3281,-1.3262,-1.3262,-1.3262,-1.3262,-1.3262,-1.3262,-1.2947,-1.2966,-1.2983,-1.3012,-1.3031,-1.3054,-1.3067,-1.3086,-1.3105,-1.3132,-1.3151,-1.3169,-1.3194,-1.3219,-1.324,-1.3247,-1.3255,-1.3249,-1.3259,-1.3269,-1.3272,-1.3274,-1.3271,-1.3251,-1.3251,-1.3246,-1.3246,-1.3246]},{"header":{"parameterUnit":"m.s-1","parameterCategory":1,"la1":30.2991,"la2":30.254,"lo1":-89.0895,"lo2":-89.0444,"dy":0.0017,"dx":0.0017,"nx":28,"ny":28,"refTime":"2023-10-12T03:00:00:Z","depth":0,"parameterNumber":3,"parameterNumberName":"V-component_of_WINDS"},"data":[0,0,0,0,0,0,0,0,0,0,0,0,0,0,0,0,0,0,0,0,0,0,0,0,0,0,0,0,0,0,0,0,0,0,0,0,0,0,0,0,0,0,0,0,0,0,0,0,0,0,0,0,0,0,0,0,0,0,0.5887,0.5884,0,0.5657,0.5654,0.5651,0.5524,0.5524,0.5523,0.5523,0.528,0.5274,0.5268,0,0,0,0,0,0,0,0,0,0,0,0,0,0.6209,0.6204,0.5887,0.5884,0.5881,0.5657,0.5654,0.5651,0.5524,0.5524,0.5523,0.5523,0.5282,0.5275,0.5267,0,0,0,0,0,0,0,0,0,0,0,0,0,0.6033,0.6203,0.5887,0.5791,0.578,0.5658,0.5654,0.565,0.5524,0.5524,0.5523,0.5523,0.5284,0.5275,0.5266,0.5219,0,0,0.5238,0.5234,0,0,0,0,0,0,0,0,0.6044,0.6022,0.5808,0.5797,0.5785,0.5619,0.5678,0.5505,0.5524,0.5621,0.5523,0.5523,0.5393,0.5374,0.5332,0.5208,0.5198,0.5237,0.5232,0.5228,0.5225,0,0,0,0,0,0,0,0.6056,0.6031,0.5795,0.5805,0.5791,0.5757,0.5732,0.5645,0.5512,0.5613,0.5603,0.5578,0.5386,0.5341,0.5325,0.5194,0.5238,0.5229,0.5224,0.522,0.5019,0.5019,0,0,0,0,0,0,0.6084,0.6042,0.5803,0.5789,0.5916,0.5752,0.5723,0.5672,0.5513,0.5488,0.5579,0.5573,0.5357,0.5336,0.5316,0.525,0.5228,0.5219,0.5214,0.5019,0.5019,0.5019,0,0,0,0,0,0,0.6092,0.6064,0.5812,0.5912,0.5878,0.5747,0.5691,0.5668,0.5623,0.5487,0.5462,0.5558,0.5356,0.5329,0.5245,0.524,0.5215,0.5207,0.5018,0.5019,0.5019,0.5118,0,0,0,0,0,0,0.6102,0.6068,0.605,0.5913,0.5873,0.5747,0.5691,0.5664,0.5609,0.5599,0.5461,0.5437,0.5354,0.5259,0.5236,0.5227,0.5199,0.5018,0.5018,0.5019,0.5114,0.5122,0.5128,0,0,0,0,0,0.6114,0.6086,0.605,0.6022,0.5849,0.5747,0.5723,0.563,0.5609,0.5589,0.5502,0.5442,0.5245,0.5252,0.5224,0.5212,0.5018,0.5018,0.5019,0.5111,0.512,0.5128,0,0,0,0,0,0,0.6222,0.6066,0.6024,0.5952,0.5864,0.5726,0.5697,0.5642,0.5556,0.555,0.5435,0.5405,0.5331,0.5263,0.5274,0.5158,0.5125,0.512,0.5205,0.5212,0.5219,0.5235,0.5192,0,0,0,0,0,0.6239,0.6172,0.6037,0.5986,0.5944,0.5829,0.5781,0.5717,0.562,0.5581,0.5487,0.5394,0.531,0.5258,0.5173,0.5105,0.5072,0.5083,0.509,0.5096,0.5092,0.5049,0.5052,0.502,0.502,0.502,0,0,0.627,0.6176,0.614,0.6005,0.593,0.586,0.5798,0.5727,0.5674,0.5569,0.5484,0.5413,0.53,0.5224,0.5185,0.5164,0.5094,0.5096,0.5102,0.5095,0.505,0.5053,0.5056,0.5021,0.5021,0.5021,0,0,0.6291,0.6215,0.6163,0.609,0.5977,0.5901,0.5889,0.5759,0.5708,0.5621,0.5542,0.5475,0.5335,0.5258,0.52,0.5195,0.5136,0.5171,0.5204,0.5164,0.5166,0.5168,0.5164,0.5165,0.5168,0.5168,0.5168,0,0.6344,0.6238,0.6143,0.6077,0.602,0.5926,0.5871,0.5803,0.5668,0.5629,0.561,0.5431,0.5349,0.5252,0.5252,0.5209,0.5189,0.5185,0.5174,0.5175,0.5175,0.517,0.5169,0.5173,0.5172,0.5172,0.5171,0,0.6308,0.6236,0.6208,0.6082,0.6022,0.5962,0.5856,0.5805,0.5747,0.5673,0.5585,0.5484,0.5377,0.535,0.5291,0.5245,0.5235,0.5197,0.5161,0.5185,0.5178,0.5175,0.518,0.5178,0.5177,0.5175,0,0,0.6388,0.6214,0.6204,0.6146,0.6016,0.5957,0.5893,0.5792,0.575,0.566,0.5602,0.5486,0.545,0.5385,0.5317,0.5282,0.5283,0.5247,0.5242,0.5255,0.5223,0.5252,0.5252,0.5244,0.5243,0.5243,0.5232,0,0.639,0.6272,0.6185,0.61,0.6032,0.5942,0.5886,0.5798,0.5728,0.5657,0.5577,0.5497,0.5456,0.5416,0.5378,0.5291,0.5274,0.5291,0.5186,0.5183,0.5215,0.5248,0.5278,0.5273,0.5229,0.5229,0.5228,0,0.6375,0.6291,0.62,0.6078,0.6045,0.5997,0.5897,0.5832,0.5731,0.5681,0.561,0.5541,0.5467,0.544,0.5335,0.5348,0.53,0.5252,0.5249,0.5233,0.5206,0.5232,0.5269,0.5268,0.5224,0.5224,0.5224,0,0.6441,0.6306,0.6233,0.6187,0.6042,0.601,0.5948,0.5846,0.5791,0.5703,0.5666,0.557,0.5517,0.5444,0.5349,0.5339,0.5253,0.5219,0.5208,0.5211,0.5192,0.5194,0.522,0.5165,0.5165,0.5165,0.5165,0,0.645,0.6397,0.6261,0.6217,0.6155,0.6055,0.5995,0.5925,0.5836,0.5775,0.5691,0.5634,0.5515,0.5443,0.5369,0.5292,0.5269,0.5225,0.5206,0.5232,0.5237,0.5197,0.5194,0.5165,0.5165,0.5165,0.5165,0,0.6512,0.642,0.6335,0.6206,0.6173,0.6132,0.6021,0.5973,0.5899,0.5822,0.5798,0.568,0.5592,0.5492,0.5369,0.5319,0.5247,0.522,0.5282,0.527,0.5264,0.5266,0.5263,0.5257,0.521,0.5211,0.5211,0,0.6523,0.6481,0.6349,0.6303,0.6244,0.6171,0.6115,0.6016,0.596,0.5843,0.5809,0.5715,0.5634,0.5497,0.5398,0.5304,0.5272,0.5278,0.5257,0.5285,0.527,0.5273,0.5267,0.5284,0.5285,0.5285,0.5286,0,0.6552,0.6509,0.6433,0.6341,0.6277,0.6199,0.6118,0.6084,0.5968,0.591,0.582,0.5758,0.5634,0.5541,0.5435,0.5368,0.5307,0.5294,0.5286,0.5311,0.5348,0.5326,0.5296,0.5294,0.5293,0.5292,0.5292,0.5292,0.6587,0.6545,0.6446,0.6364,0.6293,0.6219,0.6168,0.6089,0.6013,0.5907,0.5852,0.5763,0.5662,0.5514,0.5449,0.5376,0.5356,0.5345,0.5341,0.534,0.5346,0.5363,0.5356,0.5356,0.5356,0.5355,0.5355,0,0.6609,0.6542,0.6468,0.6358,0.6293,0.6246,0.6153,0.6101,0.6025,0.5937,0.5861,0.5757,0.5667,0.5563,0.5465,0.5427,0.5396,0.5404,0.5405,0.539,0.5371,0.5387,0.5431,0.5431,0.5431,0.5431,0.5431,0.5431,0.6613,0.654,0.6485,0.6375,0.6307,0.6221,0.6172,0.6103,0.6033,0.5922,0.5848,0.5782,0.5687,0.5583,0.5497,0.5468,0.5435,0.5452,0.5415,0.5398,0.5391,0.5385,0.54,0.5446,0.5446,0.5439,0.5439,0.5439]}]]